Location: Jetmore Oil Field
(38.1181°N, 99.9337°W)
Time: 15:08:16
(UTC+00:00)

NOSS 3-1 (A) - Pass Details

Date: 17 February 2020
Orbit: 761 x 1452 km, 63.4° (Epoch: 26 March)

Event Time Altitude Azimuth Distance (km) Brightness Sun altitude
Rises 03:11:53 0° 232° (SW) 3,255 6.7 -34.5°
Reaches altitude 10° 03:14:18 10° 240° (WSW) 2,374 6.0 -34.9°
Enters shadow 03:18:28 39° 285° (WNW) 1,254 4.4 -35.7°
